EW3230 Weather Reports


time (UTC)temp
F
wind
direction
speed
knots
gust
knots
rain 1hr
in
rain 24hr
in
rain mn
in
humidity
%
barometer
mb
20260831124616 67 68 0.9 5.2 0.00 0.14 0.03 70 1020.5
20260831123616 67 110 0.0 3.5 0.00 0.14 0.03 65 1020.4
20260831122616 66 82 0.9 4.3 0.00 0.14 0.03 61 1020.3
20260831121616 65 70 0.9 4.3 0.00 0.14 0.03 59 1020.2
20260831120617 65 103 0.0 2.6 0.00 0.14 0.03 59 1020.2
20260831115617 65 105 0.0 0.9 0.00 0.14 0.03 59 1020.2
20260831114615 65 96 0.0 0.9 0.00 0.14 0.03 59 1020.1
20260831113617 64 84 0.0 1.7 0.00 0.14 0.03 59 1020.0
20260831112616 64 228 0.0 0.9 0.00 0.14 0.03 59 1020.0
20260831111617 64 89 0.0 0.9 0.00 0.14 0.03 60 1019.9
20260831110617 64 70 0.0 0.0 0.00 0.14 0.03 60 1019.7
20260831105618 64 69 0.0 0.0 0.00 0.14 0.03 60 1019.7
20260831104617 64 69 0.0 0.0 0.00 0.14 0.03 60 1019.7
20260831103618 64 70 0.0 0.0 0.00 0.14 0.03 60 1019.6
20260831102615 64 70 0.0 0.0 0.00 0.14 0.03 60 1019.4
20260831101618 64 70 0.0 0.0 0.00 0.14 0.03 60 1019.2
20260831100615 64 69 0.0 0.9 0.00 0.14 0.03 60 1019.1
20260831095615 64 89 0.0 0.9 0.00 0.14 0.03 60 1018.9
20260831095117 64 221 0.0 0.0 0.00 0.14 0.03 60 1018.7
20260831093616 64 233 0.0 0.0 0.00 0.14 0.03 60 1018.7
20260831092616 64 233 0.0 0.0 0.00 0.14 0.03 59 1018.7
20260831091617 65 233 0.0 0.0 0.00 0.14 0.03 59 1018.6
20260831090615 65 233 0.0 0.0 0.00 0.14 0.03 59 1018.5
20260831085616 65 233 0.0 0.0 0.00 0.14 0.03 59 1018.5
20260831084616 65 233 0.0 0.0 0.00 0.14 0.03 59 1018.3
20260831083617 65 233 0.0 0.0 0.00 0.14 0.03 59 1018.3
20260831082616 65 233 0.0 0.0 0.00 0.14 0.03 59 1018.2
20260831081619 65 233 0.0 0.0 0.00 0.14 0.03 59 1018.1
20260831080620 66 233 0.0 0.0 0.00 0.14 0.03 59 1018.1
20260831075616 66 233 0.0 0.0 0.00 0.14 0.03 59 1018.0
20260831074617 66 233 0.0 0.9 0.00 0.14 0.03 59 1017.9
20260831073617 66 225 0.0 0.0 0.00 0.14 0.03 59 1017.8
20260831072615 66 122 0.0 0.0 0.00 0.14 0.03 59 1017.7
20260831071616 67 121 0.0 0.0 0.00 0.14 0.03 59 1017.6
20260831070616 67 122 0.0 0.0 0.00 0.14 0.03 59 1017.6
20260831065616 67 122 0.0 0.0 0.00 0.14 0.03 59 1017.5
20260831065116 67 121 0.0 0.0 0.00 0.14 0.03 59 1017.6
20260831063615 67 121 0.0 0.0 0.00 0.14 0.03 59 1017.5
20260831062617 67 122 0.0 0.0 0.00 0.14 0.03 59 1017.4
20260831061617 68 121 0.0 0.0 0.00 0.14 0.03 59 1017.5
20260831060616 68 121 0.0 0.0 0.01 0.14 0.03 58 1017.4
20260831055628 68 121 0.0 0.9 0.03 0.14 0.03 58 1017.3
20260831055119 68 121 0.0 0.0 0.03 0.14 0.03 58 1017.4
20260831053616 68 122 0.0 0.0 0.03 0.14 0.03 58 1017.3
20260831052617 69 122 0.0 0.0 0.03 0.14 0.03 58 1017.2
20260831051616 69 121 0.0 0.9 0.03 0.14 0.03 58 1017.3
20260831050618 69 245 0.0 0.0 0.02 0.13 0.02 58 1017.4
20260831045616 69 245 0.0 0.9 0.00 0.11 0.00 58 1017.4
20260831044615 69 245 0.0 0.9 0.01 0.11 0.00 58 1017.5
20260831043617 69 245 0.0 0.0 0.02 0.11 0.00 58 1017.5
20260831042615 69 245 0.0 0.0 0.07 0.11 0.00 59 1017.4
20260831041618 69 245 0.0 0.0 0.07 0.11 0.00 59 1017.4
20260831041130 69 262 0.0 0.0 0.08 0.11 0.00 59 1017.5
20260831035614 69 262 0.0 0.0 0.09 0.11 0.11 59 1017.4
20260831034615 69 262 0.0 0.0 0.09 0.10 0.10 59 1017.5
20260831034117 69 262 0.0 0.0 0.08 0.09 0.09 60 1017.5
20260831032615 69 262 0.0 0.9 0.03 0.04 0.04 60 1017.6
20260831031616 69 229 0.0 0.9 0.03 0.04 0.04 60 1017.6
20260831030613 69 229 0.0 0.9 0.03 0.03 0.03 61 1017.7
20260831025614 69 255 0.0 0.9 0.02 0.02 0.02 62 1017.8
20260831024615 70 262 0.0 0.9 0.01 0.01 0.01 63 1017.8
20260831023614 70 264 0.0 0.9 0.01 0.01 0.01 63 1017.7
20260831022614 70 236 0.0 0.9 0.01 0.01 0.01 64 1017.5
20260831021615 70 247 0.0 0.9 0.01 0.01 0.01 65 1017.6
20260831021117 71 248 0.0 1.7 0.00 0.00 0.00 67 1017.8
20260831020114 71 224 0.0 0.9 0.00 0.00 0.00 67 1017.8
20260831015117 71 212 0.0 0.9 0.00 0.00 0.00 67 1017.5
20260831013614 71 210 0.0 0.9 0.00 0.00 0.00 67 1017.7
20260831012613 71 232 0.0 0.9 0.00 0.00 0.00 66 1017.5
20260831011615 71 232 0.0 0.9 0.00 0.00 0.00 66 1017.6
20260831010613 71 270 0.0 0.9 0.00 0.00 0.00 66 1017.5
20260831010117 71 242 0.0 0.9 0.00 0.00 0.00 67 1017.4
20260831004613 71 218 0.0 0.9 0.00 0.00 0.00 68 1017.5
20260831003616 72 225 0.0 0.9 0.00 0.00 0.00 70 1017.5
20260831002614 72 268 0.0 0.9 0.00 0.00 0.00 71 1017.4
20260831001615 72 215 0.0 0.9 0.00 0.00 0.00 73 1017.3
20260831000614 73 211 0.0 0.9 0.00 0.00 0.00 73 1017.2
20260830235614 73 212 0.0 0.9 0.00 0.00 0.00 74 1017.1
20260830235117 73 219 0.0 0.9 0.00 0.00 0.00 75 1017.0
20260830234115 73 257 0.0 0.9 0.00 0.00 0.00 75 1017.3
20260830233117 73 228 0.0 0.9 0.00 0.00 0.00 75 1017.0
20260830231620 74 256 0.0 0.9 0.00 0.00 0.00 75 1017.1
20260830231615 74 225 0.0 0.9 0.00 0.00 0.00 75 1017.1
20260830230115 74 172 0.0 0.9 0.00 0.00 0.00 74 1017.1
20260830224615 75 235 0.0 0.9 0.00 0.00 0.00 73 1017.3
20260830223615 75 215 0.0 0.9 0.00 0.00 0.00 72 1017.4
20260830223115 75 219 0.0 0.9 0.00 0.00 0.00 71 1017.4
20260830221616 76 217 0.0 0.9 0.00 0.00 0.00 70 1017.5
20260830220614 76 221 0.0 0.9 0.00 0.00 0.00 70 1017.3
20260830215614 76 212 0.0 0.9 0.00 0.00 0.00 70 1017.4
20260830214615 76 210 0.0 0.9 0.00 0.00 0.00 69 1017.5
20260830214115 77 206 0.0 0.9 0.00 0.00 0.00 68 1017.5
20260830213116 77 208 0.0 0.9 0.00 0.00 0.00 65 1017.5
20260830211615 78 245 0.0 0.9 0.00 0.00 0.00 63 1017.5
20260830210616 78 207 0.0 0.9 0.00 0.00 0.00 61 1017.5
20260830205614 79 220 0.0 0.9 0.00 0.00 0.00 59 1017.5
20260830204615 79 242 0.0 0.9 0.00 0.00 0.00 61 1017.5
20260830203614 79 240 0.0 0.9 0.00 0.00 0.00 59 1017.6
20260830202614 80 226 0.0 2.6 0.00 0.00 0.00 58 1017.5
20260830201615 81 246 0.9 6.1 0.00 0.00 0.00 59 1017.5
20260830200614 81 212 0.0 4.3 0.00 0.00 0.00 58 1017.6
20260830195616 82 221 0.0 2.6 0.00 0.00 0.00 62 1017.7
20260830194625 82 263 0.0 0.9 0.00 0.00 0.00 62 1017.7
20260830193614 81 210 0.0 0.9 0.00 0.00 0.00 60 1017.9
20260830192633 83 207 0.0 1.7 0.00 0.00 0.00 60 1017.9
20260830192626 82 234 0.0 2.6 0.00 0.00 0.00 59 1018.0
20260830191114 83 226 0.0 2.6 0.00 0.00 0.00 56 1018.1
20260830190115 83 245 0.9 3.5 0.00 0.00 0.00 53 1018.2
20260830184614 84 225 0.9 3.5 0.00 0.00 0.00 49 1018.3
20260830183614 84 248 0.9 4.3 0.00 0.00 0.00 50 1018.4
20260830182616 84 243 0.9 3.5 0.00 0.00 0.00 49 1018.5
20260830181613 84 110 0.9 7.0 0.00 0.00 0.00 50 1018.6
20260830180617 83 277 0.9 7.0 0.00 0.00 0.00 52 1018.8
20260830175614 83 215 0.9 5.2 0.00 0.00 0.00 52 1018.9
20260830175115 83 321 1.7 7.0 0.00 0.00 0.00 51 1019.0
20260830173614 83 155 0.9 5.2 0.00 0.00 0.00 51 1019.0
20260830172614 83 141 0.9 5.2 0.00 0.00 0.00 53 1019.1
20260830171614 82 210 1.7 6.1 0.00 0.00 0.00 52 1019.2
20260830171115 82 278 0.0 4.3 0.00 0.00 0.00 53 1019.2
20260830170727 82 86 0.9 2.6 0.00 0.00 0.00 58 1019.4
20260830164615 82 209 0.0 5.2 0.00 0.00 0.00 54 1019.3
20260830163614 82 240 0.9 4.3 0.00 0.00 0.00 57 1019.3
20260830162615 81 224 0.9 4.3 0.00 0.00 0.00 56 1019.4
20260830161616 81 205 0.9 3.5 0.00 0.00 0.00 57 1019.4
20260830160615 80 214 0.0 1.7 0.00 0.00 0.00 59 1019.6
20260830155615 79 225 0.9 4.3 0.00 0.00 0.00 59 1019.8
20260830154616 80 285 0.0 3.5 0.00 0.00 0.00 58 1019.9
20260830153615 80 200 0.9 3.5 0.00 0.00 0.00 60 1019.8
20260830152614 79 246 0.0 4.3 0.00 0.00 0.00 60 1020.0
20260830151613 78 265 0.0 3.5 0.00 0.00 0.00 62 1020.2
20260830150614 78 252 0.0 4.3 0.00 0.00 0.00 62 1020.4
20260830145614 78 226 0.0 3.5 0.00 0.00 0.00 63 1020.5
20260830145116 78 248 0.0 1.7 0.00 0.00 0.00 64 1020.6
20260830143613 78 244 0.0 3.5 0.00 0.00 0.00 64 1020.7
20260830142612 77 298 0.0 2.6 0.00 0.00 0.00 68 1020.7
20260830142113 76 242 0.0 1.7 0.00 0.00 0.00 70 1020.7
20260830140612 75 242 0.0 0.9 0.00 0.00 0.00 72 1020.9
20260830135615 75 256 0.0 0.9 0.00 0.00 0.00 73 1020.9
20260830134611 74 263 0.0 0.0 0.00 0.00 0.00 74 1021.1
20260830133613 73 263 0.0 0.9 0.00 0.00 0.00 74 1021.2
20260830132610 72 159 0.0 0.9 0.00 0.00 0.00 75 1021.3
20260830131611 71 159 0.0 1.7 0.00 0.00 0.00 74 1021.4
20260830130605 70 249 0.0 2.6 0.00 0.00 0.00 73 1021.4
20260830125603 69 101 0.0 0.0 0.00 0.00 0.00 72 1021.4